Voltar ao catálogo

STARLINK-35097

AtivoComunicaçõesSSO
NORAD 65393·PAYLOAD·🇺🇸 United States

Lançado Aug 30, 2025 de Vandenberg Space Force Base

Loading…

Próximas Passagens (próximas 24 horas)

TLE

AtualizadoSource: CelesTrak SupGP

Época: Sep 14, 2026, 21:09 UTC

1 65393C 25191Q   26257.88173611 -.00018109  00000+0 -56228-3 0  2574
2 65393  97.2842 124.0342 0001762  90.9309 168.9513 15.33440131    11

Acompanhe STARLINK-35097 em tempo real com AllMySat

Download on the App Store